Hannover, Germany

1:28 AM CET on February 17, 2019 (GMT +0100)
Hannover

Weather History for EDDV - February, 2019

Change the Weather History Date:

Monday, February 11, 2019

  Actual Average Record
Temperature  
Mean Temperature 42 °F -  
Max Temperature 44 °F 42 °F 55 °F (2008)
Min Temperature 39 °F 30 °F 14 °F (2012)
Degree Days  
Heating Degree Days 24    
Moisture  
Dew Point 34 °F    
Average Humidity 76    
Maximum Humidity 93    
Minimum Humidity 57    
Precipitation  
Precipitation 0.00 in 0.05 in - ()
Sea Level Pressure  
Sea Level Pressure 29.88 in    
Wind  
Wind Speed 16 mph ()    
Max Wind Speed 26 mph    
Max Gust Speed 38 mph    
Visibility 6.2 miles    
Events Rain    
Averages and records for this station are not official NWS values.
T = Trace of Precipitation, MM = Missing Value Source: Averaged Metar Reports

Daily Weather History Graph

Daily Weather History Graph

Search for Another Location

Airport or City:

Astronomy

Feb. 11, 2019 Rise Set
Actual Time 7:45 AM CET 5:25 PM CET
Civil Twilight 7:09 AM CET 6:01 PM CET
Nautical Twilight 6:29 AM CET 6:41 PM CET
Astronomical Twilight 5:50 AM CET 7:21 PM CET
Moon 10:29 AM CET (2/11) No Moon Set
Length of Visible Light 10h 51m
Length of Day
9h 40m
Waxing Crescent, 35% of the Moon is Illuminated
Feb 11
Waxing Crescent
Feb 12
First Quarter
Feb 19
Full
Feb 26
Last Quarter
Mar 6
New

Hourly Weather History & Observations

Time (CET) Temp. Windchill Dew Point Humidity Pressure Visibility Wind Dir Wind Speed Gust Speed Precip Events Conditions
12:20 AM 39.2 °F 29.8 °F 37.4 °F 93% 29.42 in 6.2 mi West 18.4 mph - N/A Rain Light Rain
12:50 AM 41.0 °F 32.8 °F 37.4 °F 87% 29.44 in 6.2 mi West 16.1 mph - N/A Rain Light Rain
1:20 AM 41.0 °F 31.9 °F 37.4 °F 87% 29.47 in 6.2 mi WNW 19.6 mph - N/A   Mostly Cloudy
1:50 AM 41.0 °F 32.2 °F 37.4 °F 87% 29.50 in 6.2 mi WNW 18.4 mph - N/A   Mostly Cloudy
2:20 AM 41.0 °F 32.8 °F 37.4 °F 87% 29.53 in 6.2 mi West 16.1 mph - N/A   Mostly Cloudy
2:50 AM 41.0 °F 32.5 °F 37.4 °F 87% 29.53 in 6.2 mi WNW 17.3 mph - N/A Rain Light Rain Showers
3:20 AM 41.0 °F 32.8 °F 37.4 °F 87% 29.56 in 6.2 mi West 16.1 mph - N/A Rain Light Rain Showers
3:50 AM 41.0 °F 32.8 °F 37.4 °F 87% 29.56 in 6.2 mi West 16.1 mph - N/A Rain Light Rain Showers
4:20 AM 41.0 °F 32.2 °F 37.4 °F 87% 29.59 in 6.2 mi West 18.4 mph - N/A Rain Light Rain Showers
5:20 AM 41.0 °F 32.8 °F 35.6 °F 81% 29.62 in 6.2 mi West 16.1 mph - N/A   Mostly Cloudy
5:50 AM 41.0 °F 33.1 °F 35.6 °F 81% 29.65 in 6.2 mi West 15.0 mph - N/A   Mostly Cloudy
6:20 AM 41.0 °F 32.8 °F 35.6 °F 81% 29.65 in 6.2 mi West 16.1 mph - N/A   Mostly Cloudy
6:50 AM 41.0 °F 32.8 °F 35.6 °F 81% 29.68 in 6.2 mi West 16.1 mph - N/A Rain Light Rain
7:20 AM 41.0 °F 32.5 °F 35.6 °F 81% 29.68 in 6.2 mi West 17.3 mph - N/A Rain Light Rain
7:50 AM 41.0 °F 32.5 °F 35.6 °F 81% 29.71 in 6.2 mi West 17.3 mph - N/A   Mostly Cloudy
8:20 AM 41.0 °F 32.2 °F 37.4 °F 87% 29.71 in 6.2 mi West 18.4 mph - N/A Rain Light Rain
8:50 AM 41.0 °F 32.2 °F 37.4 °F 87% 29.74 in 6.2 mi West 18.4 mph - N/A Rain Light Rain
9:20 AM 41.0 °F 32.5 °F 37.4 °F 87% 29.77 in 6.2 mi WNW 17.3 mph - N/A Rain Light Rain
9:50 AM 41.0 °F 32.5 °F 37.4 °F 87% 29.80 in 6.2 mi WNW 17.3 mph - N/A   Scattered Clouds
10:20 AM 42.8 °F 34.8 °F 37.4 °F 81% 29.83 in 6.2 mi West 17.3 mph - N/A   Scattered Clouds
10:50 AM 42.8 °F 34.0 °F 35.6 °F 76% 29.83 in 6.2 mi WNW 20.7 mph - N/A   Mostly Cloudy
11:20 AM 42.8 °F 34.5 °F 33.8 °F 70% 29.86 in 6.2 mi WNW 18.4 mph - N/A   Mostly Cloudy
11:50 AM 44.6 °F 36.4 °F 33.8 °F 66% 29.86 in 6.2 mi WNW 20.7 mph - N/A   Mostly Cloudy
12:20 PM 44.6 °F 35.9 °F 32.0 °F 61% 29.89 in 6.2 mi NW 23.0 mph 38.0 mph N/A   Mostly Cloudy
12:50 PM 44.6 °F 36.4 °F 32.0 °F 61% 29.89 in 6.2 mi NW 20.7 mph 32.2 mph N/A   Mostly Cloudy
1:20 PM 44.6 °F 36.4 °F 30.2 °F 57% 29.92 in 6.2 mi NW 20.7 mph 32.2 mph N/A   Scattered Clouds
1:50 PM 42.8 °F 33.8 °F 32.0 °F 66% 29.95 in 6.2 mi NW 21.9 mph - N/A Rain Light Rain Showers
2:20 PM 42.8 °F 34.0 °F 32.0 °F 66% 29.95 in 6.2 mi NW 20.7 mph - N/A   Mostly Cloudy
2:50 PM 42.8 °F 34.0 °F 32.0 °F 66% 29.98 in 6.2 mi NW 20.7 mph - N/A   Scattered Clouds
3:20 PM 42.8 °F 32.9 °F 30.2 °F 61% 30.01 in 6.2 mi NW 26.5 mph - N/A   Scattered Clouds
3:50 PM 42.8 °F 33.8 °F 32.0 °F 66% 30.04 in 6.2 mi NW 21.9 mph 33.4 mph N/A   Scattered Clouds
4:20 PM 42.8 °F 33.5 °F 30.2 °F 61% 30.04 in 6.2 mi NW 23.0 mph 34.5 mph N/A   Scattered Clouds
4:50 PM 41.0 °F 31.4 °F 30.2 °F 65% 30.06 in 6.2 mi NW 21.9 mph 35.7 mph N/A   Scattered Clouds
5:20 PM 41.0 °F 32.2 °F 30.2 °F 65% 30.09 in 6.2 mi NW 18.4 mph - N/A   Scattered Clouds
5:50 PM 39.2 °F 30.5 °F 30.2 °F 70% 30.12 in 6.2 mi WNW 16.1 mph - N/A   Scattered Clouds
6:20 PM 41.0 °F 32.8 °F 30.2 °F 65% 30.15 in 6.2 mi WNW 16.1 mph 27.6 mph N/A   Mostly Cloudy
6:50 PM 39.2 °F 29.8 °F 32.0 °F 75% 30.18 in 6.2 mi NW 18.4 mph 29.9 mph N/A Rain Light Rain Showers
7:20 PM 39.2 °F 31.6 °F 32.0 °F 75% 30.18 in 6.2 mi WNW 12.7 mph - N/A   Mostly Cloudy
7:50 PM 39.2 °F 30.5 °F 32.0 °F 75% 30.18 in 6.2 mi WNW 16.1 mph - N/A   Mostly Cloudy
8:20 PM 39.2 °F 31.6 °F 30.2 °F 70% 30.21 in 6.2 mi WNW 12.7 mph - N/A   Scattered Clouds
8:50 PM 39.2 °F 30.5 °F 32.0 °F 75% 30.21 in 6.2 mi WNW 16.1 mph - N/A   Mostly Cloudy
9:20 PM 39.2 °F 31.6 °F 32.0 °F 75% 30.24 in 6.2 mi WNW 12.7 mph - N/A   Mostly Cloudy
9:50 PM 39.2 °F 31.6 °F 32.0 °F 75% 30.24 in 6.2 mi West 12.7 mph - N/A   Mostly Cloudy
10:20 PM 39.2 °F 31.6 °F 32.0 °F 75% 30.24 in 6.2 mi West 12.7 mph - N/A   Mostly Cloudy
10:50 PM 39.2 °F 32.0 °F 30.2 °F 70% 30.27 in 6.2 mi West 11.5 mph - N/A   Mostly Cloudy
11:20 PM 39.2 °F 31.6 °F 30.2 °F 70% 30.27 in 6.2 mi West 12.7 mph - N/A Rain Light Rain Showers
11:50 PM 39.2 °F 32.5 °F 30.2 °F 70% 30.27 in 6.2 mi West 10.4 mph - N/A   Mostly Cloudy